Weather observations for the past three days for
Galveston, Scholes Field
Imperial (Metric)
Date Time (cdt) Wind (mph) Vis. (mi.) Weather Sky Cond. Temperature (ºF) Relative Humidity Wind Chill (°F) Heat Index (°F) Pressure Precipitation (in)
Air Dwpt 6 hour altimeter (in) sea level (mb) 1 hr 3 hr 6 hr
Max. Min.
12 10:52 SE 7 10.00 Fair CLR 86 78.1 77% 98 30.1 1019.2
12 09:52 E 7 10.00 Partly Cloudy FEW023 SCT075 84 77 80% 94 30.1 1019.2
12 08:52 NE 6 10.00 Fair CLR 84 80.1 88% 97 30.09 1018.8
12 07:52 N 5 10.00 Fair CLR 82.9 78.1 85% 93 30.07 1018.0
12 06:52 N 3 10.00 Fair CLR 81 79 82.9 81 94% 89 30.04 1017.3
12 05:52 Calm 10.00 Partly Cloudy FEW025 SCT039 82 78.1 88% 91 30.03 1016.8
12 04:52 Calm 10.00 Mostly Cloudy BKN025 BKN029 82.9 78.1 85% 93 30.01 1016.2
12 03:52 Calm 10.00 Partly Cloudy SCT025 82 79 90% 92 30.01 1016.1
12 02:52 S 6 10.00 A Few Clouds FEW024 82.9 78.1 85% 93 30.01 1016.1
12 01:52 S 5 10.00 A Few Clouds FEW022 82.9 78.1 85% 93 30.02 1016.4
12 00:52 S 5 10.00 Fair CLR 82 78.1 84 82 88% 91 30.03 1016.7
11 23:52 S 3 10.00 Fair CLR 82 79 90% 92 30.02 1016.6
11 22:52 SE 3 10.00 Fair CLR 82.9 78.1 85% 93 30.02 1016.5
11 21:52 NE 3 10.00 Fair CLR 82.9 78.1 85% 93 30.01 1016.3
11 20:52 E 5 10.00 Fair CLR 82.9 78.1 85% 93 30.01 1016.2
11 19:52 Calm 10.00 Fair CLR 84 77 80% 94 30 1016.0
11 18:52 SE 3 10.00 Fair CLR 82.9 77 84.9 80.1 82% 92 30 1015.9 0.12
11 17:52 Calm 10.00 Fair CLR 84 78.1 82% 95 30 1016.0
11 16:52 Calm 10.00 Fair CLR 84 75.9 77% 93 30.02 1016.4
11 15:52 Calm 10.00 Mostly Cloudy FEW036 BKN110 81 77 88% 88 30.03 1016.7 0.03 0.12
11 14:52 S 7 6.00 Light Rain Fog/Mist SCT110 80.1 78.1 94% 86 30.04 1017.3 0.09
11 13:52 SE 6 10.00 Fair CLR 82.9 78.1 85% 93 30.04 1017.2
11 12:52 E 9 10.00 Fair CLR 84 75.9 84.9 75.9 77% 93 30.06 1017.7 1.03
Date Time (cdt) Wind (mph) Vis. (mi.) Weather Sky Cond. Air Dwpt Max. Min. Relative Humidity Wind Chill (°F) Heat Index (°F) altimeter (in) sea level (mb) 1 hr 3 hr 6 hr
6 hour
Temperature (ºF) Pressure Precipitation (in)